^^
Saratoga-Weather Station Historical Data
Daily Summary for January 20, 2021 Units:  Metric    English   Both
Daily Weekly Monthly Yearly Custom
  High: Low: Average:
Temperature: 13.3 °C 11.8 °C 12.5 °C
Dew Point: 11.1 °C 9.7 °C 10.5 °C
Humidity: 90% 79% 88%
Wind Speed: 9.7km/h 0km/h 2.4km/h
Wind Gust: 9.7km/h - -
Wind- - ESE
Pressure: 1017.6 hPa 1015.9 hPa -
Precipitation: 0.0 mm    
Historical Graphs
 
 
Tabular Data for January 20, 2021
Time Temperature Dew Point Pressure Wind Wind Speed Wind Gust Humidity Rainfall Rate (Hourly) solar
00:04 12.6 °C 11 °C 1017.6 hPa Calm   3.2 km/h 90% 0.0 mm 0 W/m2
00:09 12.6 °C 11 °C 1017.6 hPa ESE 4.7 km/h 4.8 km/h 90% 0.0 mm 0 W/m2
00:14 12.6 °C 11 °C 1017.6 hPa ESE 4.7 km/h 6.4 km/h 90% 0.0 mm 0 W/m2
00:19 12.7 °C 11.1 °C 1017.6 hPa SE 1.4 km/h 3.2 km/h 90% 0.0 mm 0 W/m2
00:24 12.7 °C 11.1 °C 1017.6 hPa ESE 1.4 km/h 6.4 km/h 90% 0.0 mm 0 W/m2
00:29 12.7 °C 10.9 °C 1017.6 hPa ESE 3.2 km/h 4.8 km/h 89% 0.0 mm 0 W/m2
00:34 12.7 °C 10.9 °C 1017.3 hPa East 3.2 km/h 6.4 km/h 89% 0.0 mm 0 W/m2
00:39 12.8 °C 11 °C 1017.3 hPa East 9.7 km/h 9.7 km/h 89% 0.0 mm 0 W/m2
00:44 12.9 °C 11 °C 1016.9 hPa ESE 1.4 km/h 4.8 km/h 88% 0.0 mm 0 W/m2
00:49 12.9 °C 11 °C 1016.9 hPa ESE 4.7 km/h 4.8 km/h 88% 0.0 mm 0 W/m2
00:54 12.8 °C 10.9 °C 1016.9 hPa East 3.2 km/h 6.4 km/h 88% 0.0 mm 0 W/m2
00:59 12.8 °C 10.9 °C 1016.9 hPa ESE 3.2 km/h 3.2 km/h 88% 0.0 mm 0 W/m2
01:04 12.8 °C 10.9 °C 1016.9 hPa ESE 4.7 km/h 6.4 km/h 88% 0.0 mm 0 W/m2
01:09 12.8 °C 10.9 °C 1016.6 hPa East 1.4 km/h 4.8 km/h 88% 0.0 mm 0 W/m2
01:14 12.7 °C 10.8 °C 1016.6 hPa ESE 3.2 km/h 3.2 km/h 88% 0.0 mm 0 W/m2
01:19 12.7 °C 10.8 °C 1016.6 hPa Calm   1.6 km/h 88% 0.0 mm 0 W/m2
01:24 12.6 °C 10.7 °C 1016.6 hPa ESE 1.4 km/h 4.8 km/h 88% 0.0 mm 0 W/m2
01:29 12.5 °C 10.6 °C 1016.6 hPa Calm     88% 0.0 mm 0 W/m2
01:34 12.3 °C 10.4 °C 1016.6 hPa ESE 1.4 km/h 6.4 km/h 88% 0.0 mm 0 W/m2
01:39 12.3 °C 10.4 °C 1016.6 hPa East 1.4 km/h 4.8 km/h 88% 0.0 mm 0 W/m2
01:44 12.3 °C 10.4 °C 1016.6 hPa Calm   4.8 km/h 88% 0.0 mm 0 W/m2
01:49 12.2 °C 10.4 °C 1016.6 hPa Calm   3.2 km/h 89% 0.0 mm 0 W/m2
01:54 12.1 °C 10.2 °C 1016.3 hPa SSE 1.4 km/h 6.4 km/h 88% 0.0 mm 0 W/m2
01:59 12 °C 10.2 °C 1016.3 hPa ESE 4.7 km/h 4.8 km/h 89% 0.0 mm 0 W/m2
02:04 11.9 °C 10.1 °C 1016.3 hPa ESE 3.2 km/h 6.4 km/h 89% 0.0 mm 0 W/m2
02:09 11.9 °C 10.1 °C 1016.3 hPa SE 1.4 km/h 4.8 km/h 89% 0.0 mm 0 W/m2
02:14 11.9 °C 10.1 °C 1016.3 hPa SE 4.7 km/h 6.4 km/h 89% 0.0 mm 0 W/m2
02:19 11.8 °C 10 °C 1016.3 hPa East 3.2 km/h 3.2 km/h 89% 0.0 mm 0 W/m2
02:24 11.8 °C 10 °C 1016.3 hPa SE 3.2 km/h 3.2 km/h 89% 0.0 mm 0 W/m2
02:29 11.9 °C 10 °C 1015.9 hPa NW 1.4 km/h 6.4 km/h 88% 0.0 mm 0 W/m2
02:34 12.4 °C 9.8 °C 1015.9 hPa Calm   6.4 km/h 84% 0.0 mm 0 W/m2
02:39 12.8 °C 10 °C 1015.9 hPa Calm   4.8 km/h 83% 0.0 mm 0 W/m2
02:44 12.9 °C 9.9 °C 1015.9 hPa NE 1.4 km/h 3.2 km/h 82% 0.0 mm 0 W/m2
02:49 13.2 °C 9.8 °C 1015.9 hPa ESE 1.4 km/h 3.2 km/h 80% 0.0 mm 0 W/m2
02:54 13.3 °C 9.7 °C 1015.9 hPa East 3.2 km/h 4.8 km/h 79% 0.0 mm 0 W/m2
Juneau County Weather
Compliments of Weather Underground - 4 mb